sat.trackr.live / text

‹ back to catalog

STARLINK-4175

NORAD 53283 · 2022-086AT

PAYLOAD ACTIVE UNKNOWN

§ Identity

Operator
Country
US
Launch date
2022-07-24
Launch site
AFETR
Launch vehicle
Mass (kg)
RCS (m²)

Purposes: comms

External: N2YO · Heavens-Above · Gunter

§ Orbital elements

Epoch: 2026-05-25T04:15:23.033088Z

Period
95.44 min
Inclination
53.2116°
Eccentricity
0.0001384
Mean motion
15.08834880 rev/d
Perigee alt
538.8 km
Apogee alt
540.7 km
Semi-major
6,917.9 km
B*
-3.4208e-6
RAAN
200.7554°
Arg perigee
78.8369°
Mean anomaly
281.2778°
Rev number
21,274

§ Raw data

STARLINK-41751 53283U 22086AT  26145.17734992 -.00000342  00000+0 -34208-5 0  99912 53283  53.2116 200.7554 0001384  78.8369 281.2778 15.08834880212747

JSON: /api/v1/satellites/53283 · /tle

For live sub-satellite position, see the globe view (requires WebGL).

§ Visibility from observer

Set your observer location to see the next 7 days of passes ≥ 10°. The values pass through the URL so the page stays shareable.

No JS? Fill the form by hand. The geolocation button needs JavaScript.